Regional Weather Roundup
Issued by NWS Huntsville, AL

Home | Current Version | Previous Version | Text Only | Print | Product List | Glossary On
Versions: 1 2 3 4 5 6 7 8 9 10 11 12 13 14 15 16 17 18 19 20 21 22 23 24 25 26 27 28 29 30 31 32 33 34 35 36 37 38 39 40 41 42 43 44 45 46 47 48 49 50
000
ASUS44 KHUN 252110
RWRHUN

WEATHER ROUNDUP FOR THE TENNESSEE VALLEY
NATIONAL WEATHER SERVICE HUNTSVILLE AL
400 PM CDT FRI JUL 25 2014

ALZ001>004-252200-
NORTHWEST ALABAMA

CITY           SKY/WX    TMP DP  RH WIND       PRES   REMARKS
COURTLAND HCN    N/A     82 N/A N/A W3          N/A
RUSSELLVILLE     N/A     82 N/A N/A MISG        N/A
SHOALS AIRPORT SUNNY     85  59  41 CALM      30.01F
SHOALS TVA RES   N/A     84 N/A N/A MISG        N/A
$$

ALZ005>007-016-252200-
NORTH CENTRAL ALABAMA

CITY           SKY/WX    TMP DP  RH WIND       PRES   REMARKS
DECATUR AP     SUNNY     86  63  45 CALM      30.02F
HUNTSVILLE AP  MOSUNNY   88  62  41 CALM      30.01F
HUN NWS/UAH      N/A     87  55  33 NW6         N/A
MERIDIANVILLE  MOSUNNY   86  55  35 N5        30.02S
VINEMONT AP    FAIR      84  64  51 NW5       30.06S
$$

ALZ008>010-252200-
NORTHEAST ALABAMA

CITY           SKY/WX    TMP DP  RH WIND       PRES   REMARKS
ALBERTVILLE    SUNNY     86  68  54 SW3       30.02S
FORT PAYNE     MOSUNNY   84  55  37 NW7       30.01S
SCOTTSBORO AP  MOSUNNY   84  63  48 NW3       30.02S
SCOTTSBORO HCN   N/A     84 N/A N/A MISG        N/A
VALLEY HEAD      N/A     82 N/A N/A MISG        N/A
$$

TNZ076-096-097-252200-
SOUTHEASTERN MIDDLE TENNESSEE

CITY           SKY/WX    TMP DP  RH WIND       PRES   REMARKS
FAYETTEVILLE   SUNNY     82  61  47 NW6       30.03F
TULLAHOMA      SUNNY     81  59  47 CALM      30.04F
WINCHESTER     SUNNY     84  57  39 CALM      30.03F
$$

...SURROUNDING SITES...

CITY           SKY/WX    TMP DP  RH WIND       PRES   REMARKS
ATLANTA        PTSUNNY   87  66  49 W10       29.99F
ANNISTON       PTSUNNY   90  66  45 SW9       29.99F HX  92
BIRMINGHAM     MOSUNNY   90  60  36 W12       30.02S
CHATTANOOGA    MOSUNNY   87  57  35 NW10      30.02S
CORINTH        FAIR      82  59  44 N5        30.00F
DALTON         MOSUNNY   82  64  54 CALM      30.01S
GADSDEN        SUNNY     90  57  33 SW7       29.99F
GOLDEN TRNGL   MOSUNNY   88  66  48 NW5       30.02S HX  90
HALEYVILLE     FAIR      85  62  45 CALM      30.05F
JACKSON TN     MOSUNNY   84  60  44 W5        30.02S
LEWISBURG      FAIR      85  58  39 CALM      30.01F
MEMPHIS        MOSUNNY   86  61  42 NW6       30.00F
MURFREESBORO   FAIR      83  59  44 CALM      30.02F
NASHVILLE      PTSUNNY   86  55  34 CALM      30.01F
ROME           MOSUNNY   88  64  44 VRB5      30.00S
SAVANNAH       SUNNY     85  65  51 CALM      30.01F
TUPELO         MOSUNNY   85  64  49 NE8       30.00F
TUSCALOOSA     MOSUNNY   88  66  48 NW8G16    30.00R HX  90
$$

...GULF COAST WEATHER...

CITY           SKY/WX    TMP DP  RH WIND       PRES   REMARKS
GULFPORT       PTSUNNY   89  74  60 VRB7      29.96F HX  98
PASCAGOULA     CLOUDY    83  75  77 SW5       29.98S HX  90
MOBILE         CLOUDY    81  74  79 N9        29.99R
GULF SHORES    PTCLDY    88  77  71 SW13      29.96F HX 100
PENSACOLA      PTSUNNY   85  80  85 SW15      29.96F HX  99
DESTIN         PTSUNNY   87  77  72 SW10      29.97F HX  99
PANAMA CITY    PTSUNNY   84  75  74 SW9       30.00F HX  92
APPALACHICOLA  MOSUNNY   88  74  63 SW13      30.00F HX  96
$$




USA.gov is the U.S. government's official web portal to all federal, state and local government web resources and services.